Location: Boiro
(42.6475°N, 8.8834°W)
Time: 20:44:27
(UTC+01:00)

CAS-4A - Visible Passes

Search period start: 21 January 2022 00:00
Search period end: 31 January 2022 00:00
Orbit: 529 x 538 km, 43.0° (Epoch: 21 January)

Date Brightness Start Highest point End Pass type
(mag) Time Alt. Az. Time Alt. Az. Time Alt. Az.
21 Jan ? 06:49:45 20° S 06:49:45 20° S 06:51:41 10° SSE visible
22 Jan ? 06:39:17 13° S 06:39:17 13° S 06:39:59 10° SSE visible
28 Jan ? 20:55:28 10° S 20:56:07 13° S 20:56:07 13° S visible
29 Jan ? 20:43:40 10° SSW 20:45:42 20° S 20:45:42 20° S visible
30 Jan ? 20:31:58 10° SSW 20:35:13 27° SSE 20:35:13 27° SSE visible
